SHT9C EGPH-EGLL

Flight info

Callsign SHT9C
Flight time 1h 3m
Altitude 33000
Route GOSAM1C GOSAM P600 FENIK L612 NAVSO DCT AKOMU DCT VAMEB DCT NUGRA NUGRA2H
Aircraft A320/M-SDE3FGHIKRWXY/S

Departure

Time 2026-05-07 15:32
Airport Edinburgh Airport (EGPH)

Arrival

Time 2026-05-07 16:36
Airport London Heathrow Airport (EGLL)
Time Latitude Longitude Altitude Speed Heading
2026-05-07 14:59 55.94860 -3.36611 116 ft 0 kts 145°
2026-05-07 15:21 55.94876 -3.36630 112 ft 4 kts 145°
2026-05-07 15:21 55.94893 -3.36652 114 ft 4 kts 144°
2026-05-07 15:22 55.94911 -3.36681 112 ft 4 kts 103°
2026-05-07 15:22 55.94912 -3.36697 114 ft 3 kts 59°
2026-05-07 15:22 55.94926 -3.36656 114 ft 4 kts 59°
2026-05-07 15:22 55.94930 -3.36645 115 ft 0 kts 58°
2026-05-07 15:26 55.94931 -3.36641 114 ft 2 kts 58°
2026-05-07 15:26 55.94943 -3.36607 115 ft 5 kts 58°
2026-05-07 15:27 55.94966 -3.36540 115 ft 8 kts 59°
2026-05-07 15:27 55.94999 -3.36443 116 ft 10 kts 59°
2026-05-07 15:27 55.95057 -3.36394 115 ft 11 kts 345°
2026-05-07 15:27 55.95118 -3.36329 113 ft 12 kts 59°
2026-05-07 15:28 55.95162 -3.36197 113 ft 13 kts 59°
2026-05-07 15:28 55.95214 -3.36044 116 ft 16 kts 58°
2026-05-07 15:28 55.95274 -3.35868 115 ft 18 kts 58°
2026-05-07 15:28 55.95341 -3.35672 115 ft 19 kts 59°
2026-05-07 15:29 55.95393 -3.35515 115 ft 14 kts 59°
2026-05-07 15:29 55.95445 -3.35412 115 ft 10 kts 355°
2026-05-07 15:29 55.95492 -3.35435 113 ft 0 kts 333°
2026-05-07 15:30 55.95503 -3.35445 112 ft 4 kts 333°
2026-05-07 15:30 55.95552 -3.35491 113 ft 11 kts 329°
2026-05-07 15:30 55.95558 -3.35605 111 ft 0 kts 240°
2026-05-07 15:31 55.95512 -3.35747 111 ft 44 kts 239°
2026-05-07 15:31 55.95232 -3.36559 112 ft 106 kts 238°
2026-05-07 15:31 55.94761 -3.37938 124 ft 152 kts 236°
2026-05-07 15:32 55.94211 -3.39607 644 ft 159 kts 238°
2026-05-07 15:32 55.93649 -3.41361 1191 ft 171 kts 236°
2026-05-07 15:32 55.92975 -3.43295 1519 ft 196 kts 236°
2026-05-07 15:32 55.92203 -3.45479 1963 ft 220 kts 235°
2026-05-07 15:33 55.91354 -3.47883 2697 ft 234 kts 235°
2026-05-07 15:33 55.90545 -3.50442 3639 ft 243 kts 248°
2026-05-07 15:33 55.90193 -3.53435 4574 ft 249 kts 257°
2026-05-07 15:33 55.89896 -3.56497 5517 ft 254 kts 256°
2026-05-07 15:34 55.89584 -3.59617 5861 ft 256 kts 256°
2026-05-07 15:34 55.89270 -3.62730 5993 ft 255 kts 256°
2026-05-07 15:34 55.88959 -3.65841 6003 ft 255 kts 256°
2026-05-07 15:34 55.88645 -3.68953 6007 ft 255 kts 256°
2026-05-07 15:35 55.88332 -3.72056 6014 ft 254 kts 256°
2026-05-07 15:35 55.88022 -3.75151 6005 ft 254 kts 256°
2026-05-07 15:35 55.87710 -3.78252 6009 ft 254 kts 256°
2026-05-07 15:35 55.87400 -3.81356 6008 ft 255 kts 256°
2026-05-07 15:36 55.87092 -3.84462 6007 ft 255 kts 256°
2026-05-07 15:36 55.86783 -3.87571 6003 ft 255 kts 256°
2026-05-07 15:36 55.86473 -3.90675 6008 ft 255 kts 256°
2026-05-07 15:36 55.86159 -3.93781 6004 ft 256 kts 256°
2026-05-07 15:37 55.85844 -3.96888 6012 ft 253 kts 256°
2026-05-07 15:37 55.85533 -3.99958 6006 ft 252 kts 256°
2026-05-07 15:37 55.85224 -4.03022 6007 ft 252 kts 256°
2026-05-07 15:37 55.84917 -4.06083 6007 ft 252 kts 256°
2026-05-07 15:38 55.84588 -4.09125 6014 ft 250 kts 251°
2026-05-07 15:38 55.83965 -4.11994 6005 ft 247 kts 239°
2026-05-07 15:38 55.83001 -4.14501 6008 ft 246 kts 227°
2026-05-07 15:38 55.81745 -4.16539 6007 ft 245 kts 215°
2026-05-07 15:39 55.80335 -4.18238 6005 ft 244 kts 214°
2026-05-07 15:39 55.78927 -4.19949 6011 ft 245 kts 214°
2026-05-07 15:39 55.77510 -4.21696 6361 ft 252 kts 215°
2026-05-07 15:39 55.76109 -4.23445 7365 ft 250 kts 215°
2026-05-07 15:40 55.74678 -4.25231 8281 ft 253 kts 215°
2026-05-07 15:40 55.73164 -4.26856 9149 ft 258 kts 203°
2026-05-07 15:40 55.71396 -4.27566 9976 ft 265 kts 184°
2026-05-07 15:40 55.69542 -4.27106 10714 ft 276 kts 165°
2026-05-07 15:41 55.67741 -4.25593 11104 ft 300 kts 156°
2026-05-07 15:41 55.65840 -4.23749 11343 ft 322 kts 155°
2026-05-07 15:41 55.63844 -4.21767 11884 ft 332 kts 154°
2026-05-07 15:41 55.61816 -4.19735 12588 ft 337 kts 154°
2026-05-07 15:42 55.59760 -4.17680 13334 ft 341 kts 155°
2026-05-07 15:42 55.57679 -4.15620 14025 ft 345 kts 155°
2026-05-07 15:42 55.55573 -4.13553 14697 ft 348 kts 155°
2026-05-07 15:42 55.53448 -4.11478 15356 ft 350 kts 155°
2026-05-07 15:43 55.51304 -4.09390 16015 ft 353 kts 155°
2026-05-07 15:43 55.49175 -4.07317 16664 ft 355 kts 155°
2026-05-07 15:43 55.46977 -4.05177 17322 ft 358 kts 154°
2026-05-07 15:43 55.44813 -4.03076 17961 ft 361 kts 154°
2026-05-07 15:44 55.42602 -4.00934 18552 ft 364 kts 154°
2026-05-07 15:44 55.40373 -3.98778 19170 ft 367 kts 154°
2026-05-07 15:44 55.38131 -3.96612 19794 ft 370 kts 154°
2026-05-07 15:44 55.35866 -3.94425 20417 ft 373 kts 154°
2026-05-07 15:45 55.33582 -3.92221 20988 ft 376 kts 154°
2026-05-07 15:45 55.31281 -3.90004 21553 ft 379 kts 155°
2026-05-07 15:45 55.28962 -3.87772 22123 ft 381 kts 155°
2026-05-07 15:45 55.26627 -3.85526 22647 ft 384 kts 154°
2026-05-07 15:46 55.21893 -3.80997 23666 ft 391 kts 155°
2026-05-07 15:46 55.19468 -3.78792 24117 ft 393 kts 156°
2026-05-07 15:46 55.17012 -3.76666 24551 ft 395 kts 157°
2026-05-07 15:47 55.14531 -3.74574 24987 ft 397 kts 157°
2026-05-07 15:47 55.12037 -3.72489 25428 ft 399 kts 157°
2026-05-07 15:47 55.09528 -3.70381 25844 ft 401 kts 157°
2026-05-07 15:47 55.07009 -3.68247 26253 ft 403 kts 156°
2026-05-07 15:48 55.04486 -3.66095 26653 ft 405 kts 156°
2026-05-07 15:48 55.01946 -3.63916 27059 ft 407 kts 156°
2026-05-07 15:48 54.99397 -3.61731 27458 ft 409 kts 156°
2026-05-07 15:48 54.96838 -3.59546 27860 ft 411 kts 156°
2026-05-07 15:49 54.94260 -3.57348 28255 ft 413 kts 156°
2026-05-07 15:49 54.91673 -3.55148 28668 ft 415 kts 156°
2026-05-07 15:49 54.89070 -3.52942 29061 ft 416 kts 156°
2026-05-07 15:49 54.86461 -3.50734 29441 ft 418 kts 156°
2026-05-07 15:50 54.83840 -3.48518 29816 ft 420 kts 156°
2026-05-07 15:50 54.81207 -3.46294 30179 ft 421 kts 156°
2026-05-07 15:50 54.78583 -3.44085 30631 ft 419 kts 156°
2026-05-07 15:50 54.75965 -3.41884 31095 ft 417 kts 156°
2026-05-07 15:51 54.73354 -3.39686 31567 ft 415 kts 155°
2026-05-07 15:51 54.70767 -3.37508 32055 ft 413 kts 155°
2026-05-07 15:51 54.68186 -3.35339 32526 ft 412 kts 155°
2026-05-07 15:51 54.65612 -3.33180 32911 ft 411 kts 155°
2026-05-07 15:52 54.63076 -3.31060 32990 ft 409 kts 155°
2026-05-07 15:52 54.57973 -3.26809 32979 ft 406 kts 155°
2026-05-07 15:53 54.52881 -3.22583 32983 ft 406 kts 155°
2026-05-07 15:53 54.47814 -3.18383 32988 ft 408 kts 155°
2026-05-07 15:54 54.42656 -3.14114 32989 ft 409 kts 155°
2026-05-07 15:54 54.37528 -3.09879 32994 ft 410 kts 155°
2026-05-07 15:55 54.32392 -3.05649 32995 ft 409 kts 155°
2026-05-07 15:55 54.27259 -3.01423 33001 ft 410 kts 155°
2026-05-07 15:56 54.22110 -2.97220 33001 ft 410 kts 155°
2026-05-07 15:56 54.16965 -2.93047 33010 ft 410 kts 155°
2026-05-07 15:57 54.11758 -2.89092 33007 ft 410 kts 157°
2026-05-07 15:57 54.06492 -2.85346 33013 ft 410 kts 158°
2026-05-07 15:58 54.01224 -2.81612 33012 ft 410 kts 157°
2026-05-07 15:58 53.95821 -2.78538 33018 ft 410 kts 162°
2026-05-07 15:59 53.90366 -2.75638 33013 ft 410 kts 162°
2026-05-07 15:59 53.84952 -2.72775 33014 ft 411 kts 162°
2026-05-07 16:00 53.79494 -2.69899 33023 ft 411 kts 162°
2026-05-07 16:00 53.74030 -2.67024 33020 ft 411 kts 162°
2026-05-07 16:01 53.68570 -2.64165 33018 ft 411 kts 162°
2026-05-07 16:01 53.63102 -2.61310 33016 ft 412 kts 162°
2026-05-07 16:02 53.57629 -2.58454 33001 ft 412 kts 162°
2026-05-07 16:02 53.52139 -2.55594 33004 ft 413 kts 162°
2026-05-07 16:03 53.46659 -2.52752 33011 ft 413 kts 162°
2026-05-07 16:03 53.41171 -2.49926 33019 ft 413 kts 162°
2026-05-07 16:04 53.35682 -2.47100 33021 ft 413 kts 162°
2026-05-07 16:04 53.31123 -2.44749 33022 ft 413 kts 162°
2026-05-07 16:05 53.24737 -2.41471 33022 ft 413 kts 162°
2026-05-07 16:05 53.19249 -2.38661 33013 ft 413 kts 162°
2026-05-07 16:06 53.14640 -2.36310 33013 ft 414 kts 162°
2026-05-07 16:06 53.09171 -2.33535 33010 ft 414 kts 162°
2026-05-07 16:07 53.03677 -2.30613 33013 ft 414 kts 157°
2026-05-07 16:07 53.01100 -2.28468 32851 ft 415 kts 149°
2026-05-07 16:07 52.98665 -2.25893 32586 ft 415 kts 148°
2026-05-07 16:07 52.96225 -2.23302 32313 ft 418 kts 148°
2026-05-07 16:08 52.93764 -2.20707 32058 ft 420 kts 148°
2026-05-07 16:08 52.91288 -2.18113 31796 ft 421 kts 148°
2026-05-07 16:08 52.88811 -2.15525 31537 ft 422 kts 148°
2026-05-07 16:08 52.86327 -2.12935 31280 ft 421 kts 148°
2026-05-07 16:09 52.83849 -2.10352 31023 ft 420 kts 148°
2026-05-07 16:09 52.81384 -2.07785 30763 ft 419 kts 148°
2026-05-07 16:09 52.78922 -2.05229 30523 ft 417 kts 148°
2026-05-07 16:09 52.76468 -2.02683 30279 ft 415 kts 148°
2026-05-07 16:10 52.74023 -2.00152 30012 ft 414 kts 148°
2026-05-07 16:10 52.71585 -1.97626 29715 ft 414 kts 148°
2026-05-07 16:10 52.69146 -1.95103 29435 ft 413 kts 148°
2026-05-07 16:10 52.66712 -1.92587 29147 ft 412 kts 148°
2026-05-07 16:11 52.64291 -1.90086 28865 ft 411 kts 149°
2026-05-07 16:11 52.61869 -1.87591 28585 ft 409 kts 149°
2026-05-07 16:11 52.59463 -1.85119 28247 ft 406 kts 149°
2026-05-07 16:11 52.57072 -1.82665 27678 ft 403 kts 149°
2026-05-07 16:12 52.54711 -1.80245 27136 ft 399 kts 149°
2026-05-07 16:12 52.52361 -1.77835 26602 ft 396 kts 149°
2026-05-07 16:12 52.50027 -1.75444 26063 ft 394 kts 150°
2026-05-07 16:12 52.47705 -1.73066 25554 ft 392 kts 150°
2026-05-07 16:13 52.45394 -1.70704 25051 ft 391 kts 150°
2026-05-07 16:13 52.43082 -1.68345 24549 ft 391 kts 150°
2026-05-07 16:13 52.40776 -1.65993 24081 ft 390 kts 150°
2026-05-07 16:13 52.38506 -1.63684 23608 ft 389 kts 150°
2026-05-07 16:14 52.36208 -1.61354 23140 ft 386 kts 150°
2026-05-07 16:14 52.33931 -1.59043 22677 ft 383 kts 150°
2026-05-07 16:14 52.31688 -1.56765 21944 ft 376 kts 150°
2026-05-07 16:14 52.29476 -1.54523 21057 ft 372 kts 150°
2026-05-07 16:15 52.27290 -1.52311 20183 ft 367 kts 150°
2026-05-07 16:15 52.25138 -1.50136 19318 ft 362 kts 150°
2026-05-07 16:15 52.23004 -1.47984 18479 ft 358 kts 150°
2026-05-07 16:15 52.20966 -1.45670 17567 ft 355 kts 142°
2026-05-07 16:16 52.19113 -1.43075 16685 ft 349 kts 141°
2026-05-07 16:16 52.17288 -1.40514 15845 ft 343 kts 141°
2026-05-07 16:16 52.15495 -1.38003 15038 ft 337 kts 141°
2026-05-07 16:16 52.13732 -1.35541 14257 ft 331 kts 141°
2026-05-07 16:17 52.12019 -1.33156 13458 ft 326 kts 141°
2026-05-07 16:17 52.10309 -1.30776 12589 ft 321 kts 141°
2026-05-07 16:17 52.08609 -1.28412 12070 ft 315 kts 141°
2026-05-07 16:17 52.06924 -1.26076 11811 ft 320 kts 141°
2026-05-07 16:18 52.05252 -1.23765 11555 ft 319 kts 141°
2026-05-07 16:18 52.03568 -1.21441 11299 ft 318 kts 141°
2026-05-07 16:18 52.01885 -1.19111 11014 ft 317 kts 141°
2026-05-07 16:18 52.00209 -1.16794 10765 ft 317 kts 141°
2026-05-07 16:19 51.98530 -1.14482 10518 ft 316 kts 141°
2026-05-07 16:19 51.96859 -1.12179 10280 ft 315 kts 141°
2026-05-07 16:19 51.95195 -1.09881 10029 ft 313 kts 141°
2026-05-07 16:19 51.93566 -1.07629 9865 ft 302 kts 141°
2026-05-07 16:20 51.91994 -1.05454 9728 ft 291 kts 141°
2026-05-07 16:20 51.90483 -1.03371 9591 ft 281 kts 141°
2026-05-07 16:20 51.89017 -1.01356 9455 ft 271 kts 141°
2026-05-07 16:20 51.87604 -0.99417 9320 ft 262 kts 141°
2026-05-07 16:21 51.86233 -0.97531 9191 ft 254 kts 140°
2026-05-07 16:21 51.85089 -0.95406 9035 ft 249 kts 124°
2026-05-07 16:21 51.84279 -0.92929 8916 ft 249 kts 118°
2026-05-07 16:21 51.83515 -0.90418 8771 ft 249 kts 118°
2026-05-07 16:22 51.82750 -0.87917 8650 ft 248 kts 118°
2026-05-07 16:22 51.81984 -0.85414 8527 ft 250 kts 118°
2026-05-07 16:22 51.81211 -0.82899 8391 ft 248 kts 118°
2026-05-07 16:22 51.80446 -0.80404 8263 ft 247 kts 118°
2026-05-07 16:23 51.79686 -0.77926 8133 ft 246 kts 118°
2026-05-07 16:23 51.78928 -0.75456 8004 ft 245 kts 118°
2026-05-07 16:23 51.78173 -0.72997 7885 ft 244 kts 118°
2026-05-07 16:23 51.77419 -0.70539 7751 ft 244 kts 118°
2026-05-07 16:24 51.76664 -0.68086 7626 ft 244 kts 118°
2026-05-07 16:24 51.75910 -0.65643 7497 ft 243 kts 118°
2026-05-07 16:24 51.75156 -0.63199 7370 ft 243 kts 118°
2026-05-07 16:24 51.74404 -0.60768 7244 ft 242 kts 118°
2026-05-07 16:25 51.73643 -0.58344 7130 ft 242 kts 122°
2026-05-07 16:25 51.72559 -0.56320 7064 ft 238 kts 144°
2026-05-07 16:25 51.71096 -0.55111 7070 ft 237 kts 165°
2026-05-07 16:25 51.69462 -0.54793 7055 ft 237 kts 179°
2026-05-07 16:26 51.67809 -0.54701 7057 ft 238 kts 179°
2026-05-07 16:26 51.66157 -0.54609 7055 ft 238 kts 179°
2026-05-07 16:26 51.64504 -0.54520 7056 ft 238 kts 179°
2026-05-07 16:26 51.62886 -0.54841 7057 ft 237 kts 200°
2026-05-07 16:27 51.61470 -0.56183 7056 ft 237 kts 223°
2026-05-07 16:27 51.60522 -0.58292 7055 ft 238 kts 246°
2026-05-07 16:27 51.60161 -0.60906 7055 ft 238 kts 265°
2026-05-07 16:27 51.60040 -0.63393 7048 ft 225 kts 264°
2026-05-07 16:28 51.59915 -0.65861 6966 ft 222 kts 264°
2026-05-07 16:28 51.59773 -0.68248 6724 ft 220 kts 263°
2026-05-07 16:28 51.59615 -0.70754 6485 ft 217 kts 263°
2026-05-07 16:28 51.59462 -0.73161 6246 ft 216 kts 263°
2026-05-07 16:29 51.59304 -0.75551 6023 ft 214 kts 259°
2026-05-07 16:29 51.58750 -0.77746 5705 ft 213 kts 231°
2026-05-07 16:29 51.57610 -0.79218 5370 ft 212 kts 202°
2026-05-07 16:29 51.56169 -0.79640 5050 ft 212 kts 178°
2026-05-07 16:30 51.54697 -0.79546 4735 ft 212 kts 178°
2026-05-07 16:30 51.53230 -0.79460 4428 ft 211 kts 178°
2026-05-07 16:30 51.51766 -0.79381 4130 ft 210 kts 179°
2026-05-07 16:30 51.50306 -0.79303 3859 ft 209 kts 179°
2026-05-07 16:31 51.48869 -0.79116 3569 ft 209 kts 163°
2026-05-07 16:31 51.47751 -0.77727 3299 ft 207 kts 118°
2026-05-07 16:31 51.47462 -0.75530 3049 ft 198 kts 92°
2026-05-07 16:31 51.47469 -0.73419 2855 ft 182 kts 89°
2026-05-07 16:32 51.47514 -0.71460 2698 ft 168 kts 89°
2026-05-07 16:32 51.47556 -0.69615 2583 ft 170 kts 90°
2026-05-07 16:32 51.47592 -0.67693 2509 ft 174 kts 90°
2026-05-07 16:32 51.47621 -0.65785 2494 ft 164 kts 90°
2026-05-07 16:33 51.47645 -0.64032 2438 ft 155 kts 91°
2026-05-07 16:33 51.47661 -0.62229 1931 ft 168 kts 92°
2026-05-07 16:33 51.47655 -0.60342 1443 ft 174 kts 92°
2026-05-07 16:33 51.47673 -0.58379 1110 ft 166 kts 90°
2026-05-07 16:34 51.47700 -0.56646 1045 ft 152 kts 90°
2026-05-07 16:34 51.47715 -0.55015 912 ft 143 kts 91°
2026-05-07 16:34 51.47725 -0.53460 735 ft 137 kts 91°
2026-05-07 16:34 51.47733 -0.51956 556 ft 133 kts 91°
2026-05-07 16:35 51.47745 -0.50485 382 ft 131 kts 91°
2026-05-07 16:35 51.47750 -0.49037 195 ft 129 kts 91°
2026-05-07 16:35 51.47755 -0.47601 95 ft 127 kts 92°
2026-05-07 16:35 51.47750 -0.46436 89 ft 69 kts 90°
2026-05-07 16:36 51.47757 -0.45960 88 ft 29 kts 86°
2026-05-07 16:36 51.47760 -0.45677 84 ft 26 kts 91°
2026-05-07 16:36 51.47707 -0.45472 85 ft 19 kts 161°
2026-05-07 16:36 51.47610 -0.45500 86 ft 15 kts 231°
2026-05-07 16:37 51.47598 -0.45590 86 ft 0 kts 269°
2026-05-07 16:37 51.47598 -0.45597 86 ft 2 kts 269°
2026-05-07 16:37 51.47597 -0.45670 86 ft 12 kts 269°
2026-05-07 16:38 51.47595 -0.45855 90 ft 21 kts 269°
2026-05-07 16:38 51.47593 -0.46103 86 ft 24 kts 269°
2026-05-07 16:38 51.47592 -0.46383 86 ft 26 kts 270°
2026-05-07 16:38 51.47592 -0.46692 86 ft 27 kts 269°
2026-05-07 16:39 51.47580 -0.46961 89 ft 23 kts 261°
2026-05-07 16:39 51.47575 -0.47215 86 ft 22 kts 277°
2026-05-07 16:39 51.47581 -0.47475 86 ft 25 kts 270°
2026-05-07 16:39 51.47579 -0.47767 88 ft 28 kts 269°
2026-05-07 16:40 51.47580 -0.48087 88 ft 30 kts 271°
2026-05-07 16:40 51.47579 -0.48421 90 ft 28 kts 270°
2026-05-07 16:40 51.47577 -0.48730 86 ft 19 kts 270°
2026-05-07 16:40 51.47578 -0.48908 88 ft 10 kts 270°
2026-05-07 16:41 51.47525 -0.48960 87 ft 11 kts 165°
2026-05-07 16:41 51.47491 -0.48897 87 ft 5 kts 138°
2026-05-07 16:41 51.47450 -0.48891 88 ft 7 kts 182°
2026-05-07 16:41 51.47415 -0.48891 88 ft 2 kts 179°
2026-05-07 16:42 51.47405 -0.48891 87 ft 1 kts 180°
2026-05-07 16:42 51.47404 -0.48891 87 ft 0 kts 180°